星链-32815 (STARLINK-32815)

导读 | 星芒AI

STARLINK-32815 是 SpaceX 星链计划中的一颗低轨通信卫星,属于第 6 批星链卫星(Group 6)。该卫星于 2023 年 9 月 28 日由猎鹰 9 号火箭从美国卡纳维拉尔角发射升空,部署在约 550 公里的轨道高度,用于提供全球宽带互联网服务。作为星链星座的一部分,STARLINK-32815 采用先进推进系统和激光通信技术,提升网络速度与稳定性,助力偏远地区互联网接入。

基本信息
目录编号:
62956
目录名称:
STARLINK-32815
国际标识:
2025-029J
轨道中心:
EARTH
卫星名称:
星链-32815
卫星全名:
星链-32815 (STARLINK-32815)
卫星状态:
在轨 (已飞行269 天)
发射日期:
2025-02-11 UTC
国别 :
美国 (US)
星等 :
--
轨道信息
数据来源 国际轨道数据
星历时间: 2025-11-07T03:00:26+0800
23小时前
查看轨道信息
半长轴: 6853.291km
偏心率: 0.0000407
轨道倾角: 53.159°
近地点辐角 58.518°
升交点赤经 81.016°
平近点角 301.586°
近地点: 474.877km
远地点: 475.435km
周期: 94.104分钟
每日圈数: 15.302207
详细信息
固有亮度:
5
最大亮度:
2.5
卫星平台:
Starlink V1.0
覆盖范围:
全球
运营商:
太空探索技术公司
运营商所在国:
美国
制造商(研发单位):
太空探索技术公司
制造商所在国:
美国
使用方式:
暂无
卫星简介
Starlink 计划是 SpaceX 推出的全球卫星互联网项目,通过发射低轨道卫星,为全球尤其是偏远地区提供高速、低延迟的互联网服务。自 2019 年起,Starlink 已部署数千颗卫星,旨在缩小全球数字鸿沟,推动互联网普及。该项目还为军事、航空等行业提供通信支持,带来广泛经济效益。
2D轨道图
3D轨道图
轨道高度分析图
轨道倾角分析图
轨道综合分析图
查看轨道综合分析图